Location: Maiden
(35.5760°N, 81.2120°W)
Time: 02:25:38
(UTC-04:00)

Vanguard 2 - Pass Details

Date: 13 August 2020
Orbit: 553 x 2937 km, 32.9° (Epoch: 20 September)

Event Time Altitude Azimuth Distance (km) Brightness Sun altitude
Rises 03:05:30 0° 282° (WNW) 5,694 11.8 -35.0°
Enters shadow 03:08:25 - 277° (W) 4,843 11.4 -34.7°
Reaches altitude 10° 03:10:25 10° 273° (W) 4,261 - -34.5°
Maximum altitude 03:18:59 28° 220° (SW) 2,302 - -33.6°
Drops below altitude 10° 03:24:46 10° 163° (SSE) 2,792 - -33.0°
Sets 03:27:18 0° 151° (SSE) 3,479 - -32.7°
